KAZSTSAT

导读

KAZSTSAT是哈萨克斯坦(KZ)于2018年12月3日发射的科学地球观测卫星,由哈萨克斯坦与英国公司联合研发。该卫星主要承担空间监测任务,可服务于农业生产、水资源保护与合理利用、自然灾害预测及突发应急事件响应等多个民生与国土领域。作为哈萨克斯坦国产卫星项目的开端,目前该国正推进该系列5颗卫星组网,计划2028年前完成建设,后续还将与蒙古、刚果开展相关合作,共建国际卫星监测集群。

Basic Information
目录编号:
43783
目录名称:
KAZSTSAT
国际标识:
2018-099AB
轨道中心:
EARTH
卫星名称:
KAZSTSAT
卫星全名:
--
卫星状态:
在轨 (已飞行2840 天)
发射日期:
2018-12-03 UTC
国别 :
(KZ)
星等 :
--
This satellite is enrolled in the Space Conjunction Data Service (SCDS) and the current flight risk assessment level is: No High Risk
Orbit Information
数据来源 国际轨道数据 AOE轨道数据
星历时间 2026-09-12T08:30:23+0800
12小时前
查看轨道信息
2026-09-06T21:00:00+0800
6天前
查看轨道信息
半长轴 6944.976km 6945.015km
偏心率 0.0013131 0.001228
轨道倾角 97.421° 97.420°
近地点辐角 115.766° 134.198°
升交点赤经 283.004° 277.777°
平近点角 244.492° 175.426°
近地点 557.719km 558.349km
远地点 575.959km 575.407km
周期 95.999分钟 96.000分钟
每日圈数 15.000187 15.000061
Detailed Information
使用方式:
暂无
2D Orbit Map
3D Orbit Map
Orbit Altitude Analysis Chart
Orbit Inclination Analysis Chart
Orbit Comprehensive Analysis Chart
View Comprehensive Chart
Conjunction Data List
Event ID Objects TCA Miss Dist (km) Collision Risk Probability Collision Risk Index (CRI) Action
CDM_260913-190904-378305-531924
KAZSTSAT (43783)
2026-09-13T
19:09:17+0000
2.461 km
极远距离
1.027387E-6 低风险 0.35
Miss Distance Evolution Trend with All Objects
Collision Probability Evolution Trend with All Objects